Hourly Data Report for September 01, 2003

TORONTO CITY
ONTARIO

43°40'00.000" N
79°24'00.000" W
112.50 m
6158355
71508
XTO

Download Data

Hourly Data (September 2003)
Hourly Data Report for September 1, 2003
TIME
LST
Temp Definition
°C
Dew Point Definition
°C
Rel Hum Definition
%
Precip. Amount Definition
mm

Wind Dir Definition
10's deg

Wind Spd Definition
km/h
Visibility Definition
km
Stn Press Definition
kPa
Hmdx Definition


Wind Chill Definition


Weather Definition


00:00 18.6 13.8 74   LegendMM LegendMM LegendMM 100.89     LegendNANA
01:00 18.5 13.9 75   LegendMM LegendMM LegendMM 100.84     LegendNANA
02:00 18.3 13.8 75   LegendMM LegendMM LegendMM 100.79     LegendNANA
03:00 17.8 13.9 78   LegendMM LegendMM LegendMM 100.78     LegendNANA
04:00 17.4 13.9 80   LegendMM LegendMM LegendMM 100.76     LegendNANA
05:00 17.1 14.0 82   LegendMM LegendMM LegendMM 100.78     LegendNANA
06:00 17.3 14.3 83   LegendMM LegendMM LegendMM 100.84     LegendNANA
07:00 17.6 14.1 80   LegendMM LegendMM LegendMM 100.84     LegendNANA
08:00 18.3 13.6 74   LegendMM LegendMM LegendMM 100.84     LegendNANA
09:00 19.8 14.3 71   LegendMM LegendMM LegendMM 100.82     LegendNANA
10:00 20.1 13.6 66   LegendMM LegendMM LegendMM 100.81     LegendNANA
11:00 19.8 12.2 62   LegendMM LegendMM LegendMM 100.79     LegendNANA
12:00 20.4 11.8 58   LegendMM LegendMM LegendMM 100.74     LegendNANA
13:00 20.2 13.2 64   LegendMM LegendMM LegendMM 100.69     LegendNANA
14:00 20.1 13.6 66   LegendMM LegendMM LegendMM 100.65     LegendNANA
15:00 19.9 14.3 70   LegendMM LegendMM LegendMM 100.63     LegendNANA
16:00 19.9 13.4 66   LegendMM LegendMM LegendMM 100.58     LegendNANA
17:00 19.9 12.9 64   LegendMM LegendMM LegendMM 100.58     LegendNANA
18:00 19.7 13.1 66   LegendMM LegendMM LegendMM 100.57     LegendNANA
19:00 18.9 13.7 72   LegendMM LegendMM LegendMM 100.56     LegendNANA
20:00 18.7 12.7 68   LegendMM LegendMM LegendMM 100.60     LegendNANA
21:00 18.6 14.0 75   LegendMM LegendMM LegendMM 100.58     LegendNANA
22:00 18.5 14.1 76   LegendMM LegendMM LegendMM 100.57     LegendNANA
23:00 17.8 14.4 80   LegendMM LegendMM LegendMM 100.58     LegendNANA

Notes on Data Quality.

Legend

  • E = Estimated
  • M = Missing
  • NA = Not Available*
  • [empty] = Indicates an unobserved value
Date modified: